QPF
0.02 0.02 0.02 0.02 0.02 0.02 0.02 0.02 0.01 0.03 0.05 0.04 0.03 0.03 0.04 0.04 0.03 0.04 0.05 0.04 0.03 0.05 0.07 0.08 0.08 0.07 0.08 0.08 0.07 0.05 0.04 0.05 0.05 0.04 0.02 0.02 0.02 0.02 0.01 0.02 0.03 0.04 0.05
0.02 0.01 0.02 0.02 0.02 0.01 0.01 0.01 0.01 0.02 0.03 0.03 0.03 0.03 0.03 0.03 0.03 0.04 0.03 0.02 0.03 0.03 0.05 0.08 0.07 0.07 0.07 0.08 0.09 0.06 0.04 0.03 0.04 0.04 0.02 0.01 0.02 0.02 0.02 0.02 0.03 0.04 0.05
0.03 0.02 0.02 0.02 0.02 0.01 0.01 0.01 0.02 0.02 0.02 0.03 0.04 0.04 0.03 0.03 0.02 0.02 0.01 0.02 0.03 0.02 0.03 0.04 0.05 0.06 0.07 0.09 0.08 0.07 0.05 0.04 0.04 0.04 0.04 0.03 0.01 0.01 0.02 0.03 0.03 0.04 0.05
0.03 0.03 0.02 0.03 0.02 0.01 0.01 0.01 0.01 0.01 0.01 0.02 0.02 0.02 0.02 0.02 0.02 0.01 0.01 0.02 0.02 0.02 0.02 0.04 0.04 0.05 0.07 0.08 0.08 0.08 0.07 0.05 0.04 0.05 0.06 0.04 0.02 0.02 0.04 0.06 0.05 0.05 0.04
0.02 0.02 0.02 0.03 0.02 0.01 0.01 0.01 0.01 0.01 0.01 0.01 0.02 0.01 0.01 0.01 0.01 0.01 0.00 0.00 0.01 0.02 0.02 0.04 0.05 0.07 0.06 0.07 0.07 0.06 0.07 0.05 0.04 0.05 0.06 0.06 0.03 0.02 0.06 0.14 0.10 0.06 0.05
0.02 0.01 0.01 0.01 0.02 0.02 0.02 0.01 0.01 0.01 0.01 0.01 0.01 0.01 0.01 0.02 0.02 0.02 0.01 0.01 0.02 0.02 0.04 0.06 0.06 0.07 0.09 0.09 0.07 0.07 0.07 0.05 0.05 0.06 0.06 0.06 0.05 0.05 0.10 0.16 0.14 0.08 0.06
0.02 0.02 0.02 0.03 0.04 0.02 0.01 0.01 0.02 0.02 0.02 0.01 0.01 0.01 0.02 0.02 0.02 0.03 0.03 0.04 0.04 0.04 0.05 0.05 0.06 0.07 0.08 0.10 0.07 0.07 0.06 0.05 0.06 0.06 0.04 0.04 0.06 0.06 0.08 0.13 0.13 0.08 0.06
0.03 0.03 0.04 0.04 0.03 0.01 0.01 0.01 0.01 0.01 0.01 0.01 0.01 0.01 0.02 0.03 0.03 0.03 0.04 0.04 0.04 0.03 0.04 0.05 0.07 0.07 0.08 0.09 0.09 0.07 0.06 0.06 0.05 0.04 0.03 0.04 0.06 0.05 0.05 0.10 0.10 0.08 0.06
0.02 0.02 0.02 0.03 0.02 0.02 0.02 0.03 0.02 0.02 0.01 0.01 0.01 0.01 0.02 0.02 0.03 0.04 0.04 0.04 0.03 0.03 0.03 0.04 0.05 0.06 0.07 0.10 0.10 0.07 0.08 0.07 0.05 0.04 0.04 0.04 0.03 0.04 0.04 0.03 0.05 0.06 0.05
0.01 0.01 0.01 0.02 0.02 0.03 0.03 0.03 0.03 0.03 0.02 0.02 0.01 0.01 0.01 0.01 0.02 0.04 0.03 0.03 0.04 0.03 0.03 0.04 0.04 0.05 0.06 0.07 0.07 0.07 0.10 0.08 0.06 0.06 0.05 0.05 0.03 0.02 0.01 0.01 0.02 0.03 0.04
0.02 0.02 0.02 0.02 0.01 0.02 0.02 0.03 0.02 0.02 0.02 0.02 0.02 0.03 0.02 0.02 0.03 0.04 0.03 0.03 0.04 0.05 0.06 0.05 0.04 0.04 0.05 0.06 0.06 0.06 0.08 0.07 0.07 0.06 0.05 0.04 0.03 0.02 0.01 0.02 0.02 0.03 0.05
0.02 0.03 0.03 0.03 0.02 0.02 0.02 0.02 0.02 0.02 0.02 0.02 0.02 0.03 0.03 0.03 0.03 0.02 0.04 0.04 0.04 0.06 0.07 0.05 0.04 0.04 0.06 0.08 0.08 0.07 0.07 0.06 0.07 0.07 0.06 0.04 0.03 0.03 0.02 0.02 0.01 0.01 0.02
0.03 0.03 0.03 0.02 0.02 0.02 0.03 0.02 0.02 0.02 0.02 0.02 0.02 0.03 0.03 0.03 0.03 0.03 0.04 0.05 0.06 0.08 0.07 0.06 0.05 0.05 0.06 0.08 0.08 0.09 0.10 0.09 0.09 0.09 0.06 0.05 0.05 0.03 0.03 0.02 0.01 0.01 0.01
0.03 0.03 0.02 0.02 0.01 0.01 0.02 0.02 0.03 0.04 0.04 0.03 0.03 0.03 0.03 0.03 0.03 0.04 0.06 0.06 0.05 0.04 0.05 0.07 0.07 0.07 0.07 0.08 0.09 0.12 0.12 0.11 0.08 0.06 0.05 0.04 0.04 0.03 0.03 0.03 0.02 0.02 0.01
0.04 0.03 0.03 0.03 0.02 0.01 0.02 0.02 0.04 0.05 0.05 0.04 0.03 0.04 0.04 0.04 0.04 0.06 0.07 0.07 0.06 0.05 0.05 0.06 0.08 0.10 0.10 0.11 0.10 0.10 0.10 0.11 0.08 0.05 0.04 0.03 0.03 0.03 0.04 0.04 0.04 0.03 0.02
0.05 0.05 0.04 0.04 0.03 0.02 0.02 0.03 0.04 0.05 0.06 0.07 0.07 0.06 0.04 0.04 0.05 0.06 0.08 0.08 0.08 0.07 0.06 0.05 0.05 0.07 0.11 0.14 0.11 0.09 0.10 0.09 0.07 0.05 0.03 0.03 0.03 0.03 0.02 0.03 0.03 0.03 0.03
0.03 0.06 0.05 0.03 0.03 0.02 0.03 0.04 0.06 0.06 0.06 0.08 0.08 0.08 0.05 0.04 0.04 0.06 0.08 0.09 0.10 0.09 0.06 0.04 0.04 0.08 0.10 0.10 0.09 0.09 0.07 0.05 0.05 0.04 0.04 0.03 0.04 0.05 0.04 0.03 0.03 0.02 0.03
0.01 0.02 0.02 0.02 0.02 0.02 0.04 0.05 0.07 0.07 0.08 0.12 0.10 0.06 0.04 0.03 0.03 0.03 0.04 0.05 0.06 0.06 0.05 0.05 0.06 0.06 0.06 0.06 0.06 0.07 0.06 0.06 0.05 0.05 0.03 0.03 0.03 0.04 0.04 0.03 0.03 0.02 0.03
0.02 0.02 0.02 0.02 0.02 0.02 0.04 0.04 0.04 0.05 0.06 0.08 0.05 0.04 0.03 0.03 0.03 0.04 0.05 0.06 0.06 0.07 0.05 0.04 0.05 0.05 0.04 0.05 0.04 0.04 0.03 0.04 0.04 0.04 0.04 0.04 0.05 0.05 0.05 0.03 0.02 0.02 0.02
0.03 0.03 0.02 0.04 0.04 0.06 0.09 0.07 0.03 0.03 0.03 0.03 0.03 0.03 0.04 0.04 0.04 0.04 0.04 0.05 0.04 0.05 0.06 0.05 0.05 0.03 0.03 0.04 0.04 0.03 0.02 0.03 0.04 0.03 0.03 0.04 0.04 0.05 0.04 0.02 0.01 0.01 0.01
0.03 0.02 0.02 0.03 0.05 0.04 0.10 0.10 0.07 0.06 0.05 0.05 0.04 0.04 0.03 0.03 0.04 0.05 0.05 0.05 0.06 0.05 0.04 0.04 0.05 0.04 0.04 0.05 0.05 0.04 0.03 0.03 0.03 0.03 0.03 0.02 0.02 0.02 0.01 0.01 0.01 0.01 0.01
0.01 0.01 0.01 0.01 0.05 0.07 0.12 0.14 0.11 0.08 0.06 0.05 0.05 0.04 0.03 0.03 0.04 0.05 0.05 0.06 0.07 0.06 0.05 0.04 0.04 0.04 0.04 0.04 0.04 0.04 0.03 0.03 0.02 0.03 0.03 0.03 0.02 0.01 0.01 0.01 0.01 0.01 0.01
0.02 0.01 0.01 0.01 0.03 0.06 0.08 0.09 0.10 0.08 0.06 0.05 0.06 0.05 0.04 0.04 0.05 0.06 0.06 0.06 0.06 0.06 0.07 0.07 0.05 0.03 0.03 0.03 0.03 0.04 0.04 0.05 0.04 0.04 0.04 0.03 0.02 0.01 0.01 0.01 0.01 0.02 0.02
0.02 0.01 0.01 0.01 0.02 0.03 0.04 0.05 0.06 0.06 0.05 0.05 0.06 0.06 0.06 0.05 0.06 0.05 0.05 0.05 0.05 0.06 0.08 0.07 0.06 0.05 0.04 0.03 0.03 0.03 0.03 0.03 0.03 0.03 0.03 0.02 0.02 0.01 0.01 0.01 0.01 0.01 0.02
0.03 0.02 0.03 0.03 0.03 0.03 0.04 0.04 0.06 0.05 0.05 0.05 0.04 0.04 0.04 0.04 0.04 0.05 0.05 0.04 0.05 0.07 0.07 0.06 0.05 0.04 0.03 0.03 0.03 0.03 0.03 0.03 0.03 0.03 0.02 0.02 0.02 0.02 0.02 0.01 0.01 0.01 0.02
0.03 0.03 0.03 0.04 0.04 0.05 0.04 0.05 0.06 0.05 0.04 0.03 0.02 0.02 0.02 0.02 0.02 0.02 0.03 0.03 0.03 0.04 0.04 0.05 0.05 0.05 0.05 0.05 0.04 0.04 0.04 0.05 0.04 0.04 0.04 0.04 0.03 0.03 0.03 0.03 0.02 0.02 0.02
MSLP
1018.59 1018.53 1018.40 1018.19 1017.93 1017.66 1017.44 1017.31 1017.32 1017.48 1017.77 1018.16 1018.58 1018.98 1019.29 1019.49 1019.56 1019.51 1019.37 1019.19 1019.00 1018.84 1018.72 1018.65 1018.61 1018.59 1018.56 1018.51 1018.45 1018.37 1018.31 1018.27 1018.27 1018.31 1018.39 1018.47 1018.53 1018.54 1018.48 1018.33 1018.12 1017.85 1017.57
1018.84 1018.85 1018.79 1018.63 1018.38 1018.10 1017.85 1017.68 1017.66 1017.81 1018.10 1018.51 1018.96 1019.39 1019.73 1019.93 1019.99 1019.91 1019.74 1019.53 1019.33 1019.17 1019.06 1019.02 1019.00 1018.99 1018.95 1018.86 1018.74 1018.59 1018.44 1018.35 1018.32 1018.38 1018.52 1018.72 1018.94 1019.14 1019.27 1019.30 1019.23 1019.07 1018.85
1018.89 1019.02 1019.05 1018.96 1018.77 1018.52 1018.27 1018.09 1018.06 1018.19 1018.48 1018.89 1019.35 1019.78 1020.12 1020.31 1020.35 1020.25 1020.06 1019.83 1019.63 1019.48 1019.40 1019.38 1019.38 1019.37 1019.32 1019.20 1019.01 1018.79 1018.57 1018.41 1018.36 1018.43 1018.64 1018.95 1019.33 1019.71 1020.03 1020.25 1020.35 1020.33 1020.20
1018.79 1019.04 1019.20 1019.22 1019.12 1018.92 1018.70 1018.53 1018.49 1018.60 1018.88 1019.27 1019.71 1020.12 1020.44 1020.62 1020.64 1020.53 1020.33 1020.11 1019.92 1019.79 1019.74 1019.75 1019.77 1019.77 1019.71 1019.55 1019.31 1019.03 1018.75 1018.54 1018.46 1018.54 1018.79 1019.18 1019.68 1020.20 1020.69 1021.09 1021.36 1021.48 1021.47
1018.60 1018.99 1019.29 1019.44 1019.44 1019.32 1019.15 1019.00 1018.95 1019.04 1019.28 1019.63 1020.04 1020.42 1020.72 1020.88 1020.89 1020.78 1020.60 1020.40 1020.24 1020.14 1020.13 1020.17 1020.22 1020.22 1020.15 1019.97 1019.70 1019.36 1019.04 1018.78 1018.67 1018.74 1019.00 1019.44 1020.00 1020.63 1021.23 1021.76 1022.16 1022.41 1022.52
1018.41 1018.94 1019.39 1019.67 1019.78 1019.75 1019.62 1019.50 1019.44 1019.51 1019.71 1020.01 1020.37 1020.72 1020.99 1021.14 1021.16 1021.07 1020.92 1020.76 1020.63 1020.58 1020.60 1020.66 1020.73 1020.75 1020.67 1020.48 1020.19 1019.83 1019.47 1019.19 1019.04 1019.09 1019.33 1019.76 1020.34 1020.99 1021.65 1022.24 1022.73 1023.09 1023.31
1018.28 1018.95 1019.53 1019.94 1020.16 1020.20 1020.14 1020.03 1019.97 1020.01 1020.17 1020.43 1020.75 1021.06 1021.31 1021.47 1021.50 1021.45 1021.34 1021.22 1021.14 1021.12 1021.16 1021.24 1021.32 1021.34 1021.26 1021.08 1020.78 1020.42 1020.05 1019.75 1019.58 1019.59 1019.80 1020.18 1020.71 1021.33 1021.97 1022.57 1023.10 1023.52 1023.83
1018.26 1019.05 1019.74 1020.26 1020.57 1020.69 1020.68 1020.61 1020.55 1020.57 1020.70 1020.92 1021.20 1021.49 1021.74 1021.90 1021.97 1021.95 1021.88 1021.81 1021.76 1021.76 1021.82 1021.90 1021.97 1021.98 1021.91 1021.73 1021.45 1021.10 1020.75 1020.46 1020.27 1020.25 1020.39 1020.70 1021.15 1021.69 1022.26 1022.82 1023.33 1023.78 1024.14
1018.34 1019.22 1020.00 1020.60 1021.00 1021.19 1021.23 1021.19 1021.15 1021.17 1021.28 1021.48 1021.75 1022.03 1022.28 1022.47 1022.56 1022.59 1022.56 1022.52 1022.49 1022.49 1022.53 1022.59 1022.64 1022.64 1022.56 1022.39 1022.14 1021.83 1021.52 1021.25 1021.08 1021.03 1021.12 1021.35 1021.70 1022.12 1022.59 1023.08 1023.54 1023.97 1024.36
1018.49 1019.42 1020.26 1020.92 1021.38 1021.63 1021.73 1021.74 1021.74 1021.79 1021.91 1022.12 1022.39 1022.68 1022.94 1023.15 1023.28 1023.34 1023.34 1023.31 1023.28 1023.26 1023.27 1023.29 1023.30 1023.27 1023.18 1023.03 1022.81 1022.56 1022.31 1022.09 1021.94 1021.89 1021.95 1022.11 1022.36 1022.67 1023.03 1023.41 1023.80 1024.19 1024.58
1018.64 1019.60 1020.46 1021.16 1021.67 1021.98 1022.14 1022.22 1022.28 1022.37 1022.54 1022.78 1023.07 1023.39 1023.68 1023.91 1024.07 1024.15 1024.16 1024.13 1024.08 1024.03 1023.99 1023.95 1023.91 1023.84 1023.75 1023.61 1023.44 1023.26 1023.08 1022.93 1022.83 1022.80 1022.85 1022.96 1023.14 1023.35 1023.61 1023.89 1024.20 1024.53 1024.90
1018.73 1019.69 1020.55 1021.27 1021.80 1022.17 1022.41 1022.57 1022.71 1022.89 1023.12 1023.41 1023.75 1024.09 1024.41 1024.67 1024.84 1024.94 1024.96 1024.92 1024.84 1024.75 1024.65 1024.56 1024.47 1024.37 1024.27 1024.15 1024.03 1023.91 1023.81 1023.74 1023.71 1023.73 1023.78 1023.88 1024.00 1024.14 1024.32 1024.51 1024.75 1025.02 1025.34
1018.72 1019.65 1020.50 1021.21 1021.78 1022.20 1022.52 1022.77 1023.02 1023.28 1023.60 1023.96 1024.34 1024.72 1025.07 1025.35 1025.54 1025.64 1025.66 1025.62 1025.52 1025.40 1025.26 1025.12 1025.00 1024.87 1024.76 1024.66 1024.58 1024.53 1024.50 1024.51 1024.55 1024.62 1024.70 1024.79 1024.89 1025.00 1025.11 1025.24 1025.40 1025.62 1025.89
1018.59 1019.48 1020.29 1021.00 1021.59 1022.07 1022.47 1022.83 1023.18 1023.55 1023.95 1024.38 1024.81 1025.23 1025.60 1025.90 1026.11 1026.22 1026.25 1026.21 1026.11 1025.98 1025.82 1025.66 1025.51 1025.37 1025.26 1025.18 1025.13 1025.13 1025.16 1025.23 1025.33 1025.44 1025.56 1025.66 1025.76 1025.83 1025.91 1025.99 1026.11 1026.27 1026.49
1018.34 1019.18 1019.96 1020.66 1021.27 1021.82 1022.30 1022.76 1023.22 1023.69 1024.17 1024.66 1025.14 1025.59 1025.98 1026.29 1026.52 1026.66 1026.71 1026.69 1026.61 1026.49 1026.35 1026.19 1026.04 1025.90 1025.80 1025.72 1025.70 1025.72 1025.79 1025.89 1026.03 1026.17 1026.31 1026.43 1026.52 1026.60 1026.65 1026.71 1026.79 1026.91 1027.08
1017.98 1018.78 1019.54 1020.24 1020.89 1021.50 1022.07 1022.63 1023.18 1023.74 1024.29 1024.83 1025.34 1025.81 1026.21 1026.54 1026.79 1026.96 1027.04 1027.07 1027.03 1026.96 1026.85 1026.72 1026.59 1026.46 1026.36 1026.29 1026.27 1026.30 1026.37 1026.49 1026.63 1026.79 1026.93 1027.06 1027.16 1027.23 1027.27 1027.32 1027.37 1027.46 1027.58
1017.54 1018.32 1019.08 1019.81 1020.50 1021.17 1021.83 1022.48 1023.11 1023.74 1024.34 1024.91 1025.44 1025.92 1026.33 1026.67 1026.94 1027.14 1027.28 1027.36 1027.39 1027.37 1027.32 1027.23 1027.13 1027.03 1026.93 1026.86 1026.83 1026.84 1026.90 1027.00 1027.13 1027.28 1027.42 1027.54 1027.64 1027.71 1027.76 1027.79 1027.83 1027.89 1027.99
1017.07 1017.86 1018.64 1019.40 1020.15 1020.89 1021.62 1022.34 1023.04 1023.71 1024.35 1024.93 1025.47 1025.94 1026.35 1026.70 1027.00 1027.24 1027.43 1027.57 1027.67 1027.72 1027.73 1027.69 1027.63 1027.55 1027.46 1027.38 1027.33 1027.32 1027.35 1027.42 1027.52 1027.64 1027.77 1027.88 1027.98 1028.05 1028.10 1028.14 1028.17 1028.22 1028.30
1016.60 1017.42 1018.23 1019.04 1019.85 1020.66 1021.46 1022.24 1022.98 1023.68 1024.33 1024.92 1025.44 1025.91 1026.32 1026.67 1026.99 1027.26 1027.50 1027.70 1027.86 1027.97 1028.04 1028.05 1028.02 1027.96 1027.88 1027.80 1027.73 1027.69 1027.69 1027.73 1027.81 1027.91 1028.02 1028.12 1028.22 1028.29 1028.35 1028.39 1028.43 1028.47 1028.53
1016.17 1017.02 1017.88 1018.75 1019.62 1020.48 1021.33 1022.15 1022.92 1023.63 1024.28 1024.86 1025.37 1025.82 1026.22 1026.58 1026.91 1027.21 1027.49 1027.73 1027.94 1028.10 1028.21 1028.26 1028.25 1028.21 1028.13 1028.05 1027.98 1027.93 1027.92 1027.94 1028.01 1028.10 1028.20 1028.31 1028.40 1028.49 1028.55 1028.60 1028.64 1028.68 1028.73
1015.80 1016.68 1017.59 1018.50 1019.42 1020.33 1021.20 1022.04 1022.82 1023.53 1024.17 1024.73 1025.22 1025.66 1026.06 1026.42 1026.76 1027.08 1027.37 1027.65 1027.88 1028.07 1028.20 1028.27 1028.28 1028.26 1028.20 1028.13 1028.07 1028.03 1028.03 1028.07 1028.14 1028.24 1028.35 1028.47 1028.57 1028.66 1028.73 1028.78 1028.82 1028.85 1028.89
1015.50 1016.41 1017.34 1018.29 1019.23 1020.15 1021.04 1021.88 1022.64 1023.34 1023.96 1024.50 1024.98 1025.41 1025.80 1026.17 1026.52 1026.84 1027.15 1027.43 1027.67 1027.86 1028.00 1028.08 1028.11 1028.10 1028.07 1028.03 1028.00 1028.01 1028.04 1028.12 1028.22 1028.35 1028.48 1028.61 1028.72 1028.82 1028.88 1028.93 1028.96 1028.99 1029.01
1015.29 1016.21 1017.14 1018.09 1019.02 1019.94 1020.80 1021.62 1022.36 1023.03 1023.63 1024.16 1024.63 1025.06 1025.45 1025.83 1026.17 1026.51 1026.81 1027.09 1027.32 1027.50 1027.64 1027.72 1027.76 1027.77 1027.77 1027.78 1027.81 1027.87 1027.96 1028.09 1028.25 1028.41 1028.57 1028.72 1028.84 1028.93 1028.99 1029.02 1029.04 1029.04 1029.05
1015.19 1016.07 1016.98 1017.89 1018.79 1019.66 1020.49 1021.26 1021.96 1022.60 1023.18 1023.70 1024.17 1024.60 1025.01 1025.39 1025.75 1026.08 1026.38 1026.64 1026.86 1027.03 1027.15 1027.23 1027.28 1027.32 1027.36 1027.42 1027.51 1027.64 1027.81 1028.00 1028.21 1028.41 1028.60 1028.76 1028.88 1028.95 1028.99 1029.00 1028.98 1028.96 1028.95
1015.17 1016.00 1016.85 1017.70 1018.54 1019.34 1020.11 1020.82 1021.48 1022.08 1022.63 1023.14 1023.62 1024.06 1024.49 1024.89 1025.26 1025.59 1025.89 1026.14 1026.34 1026.49 1026.59 1026.67 1026.73 1026.80 1026.88 1027.00 1027.15 1027.34 1027.57 1027.82 1028.07 1028.31 1028.51 1028.67 1028.77 1028.82 1028.83 1028.80 1028.76 1028.71 1028.67
1015.24 1015.99 1016.76 1017.53 1018.28 1019.01 1019.69 1020.34 1020.94 1021.50 1022.03 1022.54 1023.02 1023.48 1023.93 1024.35 1024.73 1025.08 1025.37 1025.61 1025.80 1025.93 1026.03 1026.10 1026.18 1026.26 1026.38 1026.54 1026.74 1026.99 1027.26 1027.55 1027.82 1028.06 1028.26 1028.40 1028.47 1028.49 1028.46 1028.40 1028.32 1028.25 1028.20
Thickness
5786 5787 5786 5786 5783 5781 5778 5777 5774 5772 5770 5766 5763 5759 5757 5757 5756 5756 5755 5753 5751 5750 5748 5747 5745 5744 5742 5740 5739 5737 5735 5734 5734 5731 5728 5729 5731 5731 5731 5731 5730 5730 5730
5784 5785 5786 5785 5784 5781 5780 5778 5775 5773 5771 5769 5765 5762 5760 5758 5757 5756 5755 5753 5751 5749 5748 5747 5745 5743 5741 5739 5738 5737 5734 5733 5733 5730 5725 5722 5723 5727 5730 5729 5728 5728 5728
5785 5786 5786 5785 5784 5782 5781 5780 5776 5774 5772 5770 5766 5763 5760 5758 5756 5755 5753 5753 5751 5749 5748 5747 5745 5743 5741 5738 5737 5736 5734 5731 5731 5731 5727 5721 5718 5720 5725 5726 5726 5726 5726
5791 5788 5788 5787 5786 5786 5785 5782 5779 5776 5774 5771 5767 5763 5758 5755 5755 5754 5754 5753 5752 5750 5749 5747 5745 5743 5741 5739 5738 5737 5735 5733 5730 5730 5729 5728 5726 5720 5717 5721 5723 5724 5724
5795 5792 5792 5791 5791 5789 5786 5783 5780 5777 5774 5772 5768 5764 5761 5759 5757 5756 5754 5753 5752 5751 5749 5748 5746 5743 5741 5740 5738 5737 5735 5733 5731 5729 5728 5726 5724 5723 5718 5715 5717 5719 5721
5799 5797 5796 5795 5792 5790 5788 5784 5780 5777 5775 5772 5769 5766 5762 5759 5756 5754 5752 5751 5750 5749 5748 5747 5745 5743 5741 5739 5738 5737 5735 5733 5732 5730 5728 5726 5724 5721 5719 5715 5714 5714 5716
5802 5798 5795 5794 5792 5790 5788 5785 5781 5777 5775 5773 5770 5767 5764 5761 5757 5754 5751 5749 5747 5746 5746 5745 5743 5742 5741 5739 5738 5736 5734 5732 5731 5729 5728 5727 5726 5724 5721 5717 5713 5711 5712
5804 5801 5799 5797 5795 5792 5789 5786 5782 5778 5776 5774 5771 5768 5765 5762 5758 5756 5753 5750 5747 5746 5745 5744 5742 5741 5740 5738 5736 5734 5732 5731 5730 5729 5727 5726 5725 5724 5721 5718 5714 5709 5708
5805 5803 5802 5799 5796 5793 5790 5787 5783 5779 5777 5775 5772 5768 5765 5762 5759 5756 5753 5750 5748 5746 5744 5743 5741 5739 5738 5736 5734 5731 5729 5728 5727 5726 5725 5724 5723 5722 5721 5719 5717 5711 5705
5804 5804 5802 5800 5797 5794 5790 5787 5783 5779 5777 5775 5772 5769 5766 5763 5759 5756 5752 5750 5748 5746 5743 5742 5740 5738 5736 5734 5731 5729 5727 5725 5724 5722 5721 5720 5719 5719 5718 5717 5715 5713 5708
5802 5802 5801 5800 5797 5793 5790 5786 5783 5779 5776 5774 5771 5769 5765 5762 5759 5755 5752 5750 5747 5744 5741 5739 5737 5735 5733 5731 5728 5726 5724 5722 5720 5720 5718 5716 5716 5715 5714 5713 5711 5708 5706
5800 5799 5798 5796 5793 5791 5788 5785 5782 5779 5776 5774 5770 5768 5764 5761 5758 5754 5751 5748 5745 5742 5739 5736 5734 5732 5730 5727 5725 5723 5721 5719 5717 5715 5714 5712 5712 5711 5709 5708 5706 5704 5702
5795 5794 5792 5791 5789 5788 5786 5784 5781 5779 5776 5773 5770 5766 5762 5759 5756 5753 5749 5746 5742 5739 5736 5733 5730 5728 5726 5724 5722 5720 5718 5716 5714 5712 5710 5708 5707 5705 5704 5703 5701 5699 5698
5790 5788 5787 5786 5785 5784 5783 5781 5779 5777 5774 5771 5767 5763 5760 5757 5754 5751 5747 5743 5740 5735 5732 5729 5726 5725 5723 5721 5719 5717 5714 5712 5710 5709 5707 5705 5703 5701 5700 5698 5695 5694 5691
5784 5783 5782 5781 5780 5779 5778 5777 5776 5774 5771 5767 5764 5760 5757 5754 5750 5747 5744 5740 5736 5732 5728 5725 5722 5720 5718 5717 5714 5712 5710 5707 5705 5703 5702 5701 5699 5698 5696 5694 5691 5688 5685
5778 5778 5778 5777 5775 5774 5773 5772 5770 5769 5766 5763 5759 5756 5752 5749 5746 5742 5739 5735 5732 5728 5725 5721 5718 5715 5714 5712 5710 5708 5705 5702 5700 5698 5697 5696 5694 5692 5691 5689 5687 5685 5681
5776 5775 5774 5774 5772 5771 5769 5766 5764 5763 5760 5756 5753 5749 5746 5743 5740 5737 5734 5729 5726 5723 5719 5716 5713 5711 5709 5707 5705 5704 5701 5698 5695 5693 5692 5691 5689 5687 5685 5682 5680 5677 5674
5772 5771 5770 5769 5767 5766 5764 5762 5759 5756 5752 5749 5746 5743 5740 5737 5734 5731 5727 5724 5721 5718 5714 5710 5708 5705 5703 5701 5700 5698 5695 5692 5690 5688 5686 5684 5682 5681 5678 5675 5672 5669 5666
5769 5768 5766 5764 5762 5760 5758 5755 5751 5748 5745 5742 5739 5737 5735 5732 5728 5725 5721 5718 5715 5711 5708 5705 5702 5700 5697 5695 5693 5692 5689 5686 5683 5681 5679 5678 5676 5674 5671 5668 5664 5661 5658
5764 5762 5760 5757 5754 5752 5750 5746 5742 5740 5737 5736 5733 5732 5729 5726 5722 5718 5714 5711 5708 5705 5702 5698 5696 5693 5690 5688 5686 5685 5682 5678 5675 5673 5672 5670 5668 5666 5663 5660 5657 5653 5650
5757 5755 5753 5749 5746 5745 5742 5738 5734 5732 5731 5730 5727 5725 5722 5719 5716 5712 5708 5704 5701 5697 5693 5690 5687 5685 5683 5681 5679 5678 5675 5671 5668 5665 5663 5661 5659 5657 5654 5652 5649 5645 5642
5747 5746 5743 5741 5738 5737 5734 5729 5726 5725 5724 5722 5720 5717 5714 5712 5709 5705 5701 5697 5694 5690 5685 5681 5678 5676 5674 5672 5671 5669 5667 5664 5661 5657 5655 5652 5650 5648 5645 5642 5639 5636 5634
5738 5737 5735 5732 5729 5728 5726 5722 5719 5718 5717 5714 5711 5708 5706 5703 5700 5697 5693 5689 5686 5682 5678 5674 5670 5668 5666 5664 5663 5660 5658 5656 5653 5649 5646 5644 5641 5639 5636 5632 5630 5627 5624
5728 5727 5725 5723 5720 5719 5717 5715 5712 5711 5708 5704 5701 5699 5696 5693 5690 5688 5685 5681 5678 5675 5671 5667 5663 5660 5657 5656 5654 5652 5649 5647 5644 5640 5637 5635 5633 5630 5627 5623 5620 5618 5615
5718 5718 5716 5714 5712 5711 5709 5707 5705 5703 5698 5694 5692 5689 5686 5684 5680 5677 5674 5672 5669 5668 5664 5661 5658 5654 5651 5648 5647 5644 5641 5639 5636 5632 5629 5626 5623 5620 5617 5614 5610 5607 5605
5708 5707 5706 5705 5703 5702 5700 5698 5696 5694 5691 5687 5683 5680 5677 5675 5672 5669 5665 5662 5660 5659 5657 5654 5651 5647 5644 5641 5639 5636 5633 5629 5626 5623 5619 5616 5613 5610 5607 5604 5601 5598 5595